timestamp,surface_pressure_avg,surface_temp_avg,battery_voltage,lat,long
2024-05-06 00:09:00+00:00,284.6397,1.3,12.41,47.84626,-54.09684
2024-05-06 00:19:00+00:00,274.9214,1.3,12.41,47.84626,-54.09684
2024-05-06 00:29:00+00:00,265.9597,1.3,12.41,47.84626,-54.09684
2024-05-06 00:39:00+00:00,259.4014,1.3,12.41,47.84626,-54.09684
2024-05-06 00:49:00+00:00,251.8931,1.3,12.41,47.84626,-54.09684
2024-05-06 00:59:00+00:00,238.9514,1.3,12.41,47.84626,-54.09684
2024-05-06 01:09:00+00:00,228.4597,1.3,12.41,47.84626,-54.09684
2024-05-06 01:19:00+00:00,220.8598,1.3,12.33,47.84626,-54.09684
2024-05-06 01:29:00+00:00,213.2331,1.3,12.33,47.84626,-54.09684
2024-05-06 01:39:00+00:00,205.7614,1.3,12.33,47.84626,-54.09684
2024-05-06 01:49:00+00:00,198.6531,1.3,12.33,47.84626,-54.09684
2024-05-06 01:59:00+00:00,191.9215,1.34,12.33,47.84626,-54.09684
2024-05-06 02:09:00+00:00,187.9181,1.39,12.33,47.84626,-54.09684
2024-05-06 02:19:01+00:00,184.7348,1.4,12.33,47.84626,-54.09684
2024-05-06 02:29:01+00:00,177.9198,1.42,12.33,47.84626,-54.09684
2024-05-06 02:39:01+00:00,170.2132,1.55,12.33,47.84626,-54.09684
2024-05-06 02:49:01+00:00,166.8048,1.67,12.33,47.84626,-54.09684
2024-05-06 02:59:01+00:00,167.3715,1.74,12.33,47.84626,-54.09684
2024-05-06 03:09:01+00:00,165.3932,1.8,12.33,47.84626,-54.09684
2024-05-06 03:19:00+00:00,158.1499,1.81,12.33,47.84626,-54.09684
2024-05-06 03:29:00+00:00,158.1248,1.8,12.33,47.84626,-54.09684
2024-05-06 03:39:00+00:00,160.2432,1.8,12.33,47.84626,-54.09684
2024-05-06 03:49:00+00:00,152.7532,1.8,12.33,47.84626,-54.09684
2024-05-06 03:59:00+00:00,151.3099,1.87,12.33,47.84626,-54.09684
2024-05-06 04:09:00+00:00,158.6615,1.89,12.33,47.84626,-54.09684
2024-05-06 04:19:00+00:00,155.6598,1.9,12.33,47.84626,-54.09684
2024-05-06 04:29:00+00:00,150.0416,1.9,12.33,47.84626,-54.09684
2024-05-06 04:39:00+00:00,155.5165,1.92,12.33,47.84626,-54.09684
2024-05-06 04:49:00+00:00,159.9633,1.98,12.33,47.84626,-54.09684
2024-05-06 04:59:00+00:00,158.0365,2.0,12.33,47.84626,-54.09684
2024-05-06 05:09:00+00:00,160.2532,2.04,12.33,47.84626,-54.09684
2024-05-06 05:19:00+00:00,167.7215,2.0,12.33,47.84626,-54.09684
2024-05-06 05:29:00+00:00,170.6164,2.0,12.33,47.84626,-54.09684
2024-05-06 05:39:00+00:00,173.0964,2.0,12.33,47.84626,-54.09684
2024-05-06 05:49:00+00:00,179.3915,2.0,12.33,47.84626,-54.09684
2024-05-06 05:59:00+00:00,184.2181,1.9,12.33,47.84626,-54.09684
2024-05-06 06:09:00+00:00,189.8098,1.9,12.33,47.84626,-54.09684
2024-05-06 06:19:00+00:00,199.0665,1.88,12.33,47.84626,-54.09684
2024-05-06 06:29:00+00:00,206.9014,1.84,12.33,47.84626,-54.09684
2024-05-06 06:39:00+00:00,213.3948,1.86,12.33,47.84626,-54.09684
2024-05-06 06:49:00+00:00,219.6198,1.88,12.33,47.84626,-54.09684
2024-05-06 06:59:00+00:00,226.9415,1.88,12.33,47.84626,-54.09684
2024-05-06 07:09:00+00:00,236.8681,1.9,12.33,47.84626,-54.09684
2024-05-06 07:19:00+00:00,245.0981,1.9,12.33,47.84626,-54.09684
2024-05-06 07:29:00+00:00,253.5664,1.9,12.33,47.84626,-54.09684
2024-05-06 07:39:00+00:00,259.5081,1.92,12.33,47.84626,-54.09684
2024-05-06 07:49:00+00:00,268.3664,1.93,12.33,47.84626,-54.09684
2024-05-06 07:59:00+00:00,277.4881,1.93,12.33,47.84626,-54.09684
2024-05-06 08:09:00+00:00,285.4347,1.95,12.33,47.84626,-54.09684
2024-05-06 08:19:00+00:00,288.4997,1.95,12.33,47.84626,-54.09684
2024-05-06 08:29:00+00:00,294.9747,1.9,12.33,47.84626,-54.09684
2024-05-06 08:39:00+00:00,302.318,1.9,12.33,47.84626,-54.09684
2024-05-06 08:49:00+00:00,310.098,1.9,12.33,47.84626,-54.09684
2024-05-06 08:59:00+00:00,313.2513,1.93,12.33,47.84626,-54.09684
2024-05-06 09:09:00+00:00,319.548,1.91,12.33,47.84626,-54.09684
2024-05-06 09:19:00+00:00,325.763,1.95,12.41,47.84626,-54.09684
2024-05-06 09:29:00+00:00,327.0613,1.98,12.41,47.84626,-54.09684
2024-05-06 09:39:00+00:00,327.4464,2.0,12.41,47.84626,-54.09684
2024-05-06 09:49:00+00:00,334.5764,2.0,12.41,47.84626,-54.09684
2024-05-06 09:59:00+00:00,336.228,2.0,12.41,47.84626,-54.09684
2024-05-06 10:09:00+00:00,331.6097,2.0,12.41,47.84626,-54.09684
2024-05-06 10:19:00+00:00,333.4846,2.0,12.73,47.84626,-54.09684
2024-05-06 10:29:00+00:00,340.3862,2.0,12.73,47.84626,-54.09684
2024-05-06 10:39:00+00:00,335.6763,2.0,12.73,47.84626,-54.09684
2024-05-06 10:49:00+00:00,330.9197,2.05,12.73,47.84626,-54.09684
2024-05-06 10:59:00+00:00,331.3246,2.08,12.73,47.84626,-54.09684
2024-05-06 11:09:00+00:00,330.2996,2.05,12.73,47.84626,-54.09684
2024-05-06 11:19:00+00:00,318.758,2.1,13.68,47.84626,-54.09684
2024-05-06 11:29:00+00:00,312.9563,2.1,13.68,47.84626,-54.09684
2024-05-06 11:39:00+00:00,310.243,2.1,13.68,47.84626,-54.09684
2024-05-06 11:49:00+00:00,303.8347,2.1,13.68,47.84626,-54.09684
2024-05-06 11:59:00+00:00,293.743,2.1,13.68,47.84626,-54.09684
2024-05-06 12:09:00+00:00,292.6664,2.06,13.68,47.84626,-54.09684
2024-05-06 12:19:00+00:00,288.2963,2.04,14.24,47.84626,-54.09684
2024-05-06 12:29:00+00:00,276.2781,2.08,14.24,47.84626,-54.09684
2024-05-06 12:39:00+00:00,268.4664,2.1,14.24,47.84626,-54.09684
2024-05-06 12:49:00+00:00,266.2981,2.1,14.24,47.84626,-54.09684
2024-05-06 12:59:00+00:00,257.0897,2.1,14.24,47.84626,-54.09684
2024-05-06 13:09:00+00:00,241.8048,2.1,14.24,47.84626,-54.09684
2024-05-06 13:19:00+00:00,231.8997,2.1,14.4,47.84626,-54.09684
2024-05-06 13:29:00+00:00,227.0614,2.12,14.4,47.84626,-54.09684
2024-05-06 13:39:00+00:00,220.7864,2.14,14.4,47.84626,-54.09684
2024-05-06 13:49:00+00:00,212.7065,2.18,14.4,47.84626,-54.09684
2024-05-06 13:59:00+00:00,204.8431,2.2,14.4,47.84626,-54.09684
2024-05-06 14:09:00+00:00,198.6231,2.27,14.4,47.84626,-54.09684
2024-05-06 14:19:00+00:00,193.0364,2.39,12.97,47.84626,-54.09684
2024-05-06 14:29:00+00:00,189.3015,2.49,12.97,47.84626,-54.09684
2024-05-06 14:39:00+00:00,183.9465,2.55,12.97,47.84626,-54.09684
2024-05-06 14:49:00+00:00,177.0214,2.6,12.97,47.84626,-54.09684
2024-05-06 14:59:00+00:00,173.2665,2.6,12.97,47.84626,-54.09684
2024-05-06 15:09:00+00:00,170.2698,2.66,12.97,47.84626,-54.09684
2024-05-06 15:19:00+00:00,166.4448,2.7,13.92,47.84626,-54.09684
2024-05-06 15:29:00+00:00,165.8531,2.7,13.92,47.84626,-54.09684
2024-05-06 15:39:00+00:00,165.6765,2.72,13.92,47.84626,-54.09684
2024-05-06 15:49:00+00:00,162.8215,2.79,13.92,47.84626,-54.09684
2024-05-06 15:59:00+00:00,159.6698,2.8,13.92,47.84626,-54.09684
2024-05-06 16:09:00+00:00,161.8165,2.8,13.92,47.84626,-54.09684
2024-05-06 16:19:00+00:00,167.2781,2.72,13.76,47.84626,-54.09684
2024-05-06 16:29:00+00:00,164.4281,2.7,13.76,47.84626,-54.09684
2024-05-06 16:39:00+00:00,161.5132,2.7,13.76,47.84626,-54.09684
2024-05-06 16:49:00+00:00,168.3232,2.67,13.76,47.84626,-54.09684
2024-05-06 16:59:00+00:00,172.8165,2.6,13.76,47.84626,-54.09684
2024-05-06 17:09:00+00:00,175.6398,2.66,13.76,47.84626,-54.09684
2024-05-06 17:19:00+00:00,177.5515,2.65,12.89,47.84626,-54.09684
2024-05-06 17:29:00+00:00,178.8965,2.64,12.89,47.84626,-54.09684
2024-05-06 17:39:00+00:00,185.3548,2.68,12.89,47.84626,-54.09684
2024-05-06 17:49:00+00:00,191.7215,2.7,12.89,47.84626,-54.09684
2024-05-06 17:59:00+00:00,193.4315,2.8,12.89,47.84626,-54.09684
2024-05-06 18:09:00+00:00,197.5764,2.8,12.89,47.84626,-54.09684
2024-05-06 18:19:00+00:00,203.2781,2.8,12.89,47.84626,-54.09684
2024-05-06 18:29:00+00:00,207.5064,2.8,12.89,47.84626,-54.09684
2024-05-06 18:39:00+00:00,214.1097,2.85,12.89,47.84626,-54.09684
2024-05-06 18:49:00+00:00,221.6648,2.87,12.89,47.84626,-54.09684
2024-05-06 18:59:00+00:00,227.8081,2.89,12.89,47.84626,-54.09684
2024-05-06 19:09:00+00:00,235.3831,2.9,12.89,47.84626,-54.09684
2024-05-06 19:19:01+00:00,243.0497,2.9,12.73,47.84626,-54.09684
2024-05-06 19:29:01+00:00,249.9747,2.9,12.73,47.84626,-54.09684
2024-05-06 19:39:01+00:00,260.2614,2.9,12.73,47.84626,-54.09684
2024-05-06 19:49:01+00:00,270.1281,2.9,12.73,47.84626,-54.09684
2024-05-06 19:59:01+00:00,274.8281,2.9,12.73,47.84626,-54.09684
2024-05-06 20:09:01+00:00,279.6964,2.9,12.73,47.84626,-54.09684
2024-05-06 20:19:00+00:00,292.3264,2.9,12.65,47.84626,-54.09684
2024-05-06 20:29:00+00:00,303.1564,2.9,12.65,47.84626,-54.09684
2024-05-06 20:39:00+00:00,310.0681,2.9,12.65,47.84626,-54.09684
2024-05-06 20:49:00+00:00,316.573,2.9,12.65,47.84626,-54.09684
2024-05-06 20:59:00+00:00,326.973,2.9,12.65,47.84626,-54.09684
2024-05-06 21:09:00+00:00,333.2796,2.9,12.65,47.84626,-54.09684
2024-05-06 21:19:00+00:00,338.348,2.9,12.49,47.84626,-54.09684
2024-05-06 21:29:00+00:00,345.5897,2.9,12.49,47.84626,-54.09684
2024-05-06 21:39:00+00:00,350.8963,2.92,12.49,47.84626,-54.09684
2024-05-06 21:49:00+00:00,350.2896,2.95,12.49,47.84626,-54.09684
2024-05-06 21:59:00+00:00,351.6763,2.97,12.49,47.84626,-54.09684
2024-05-06 22:09:00+00:00,357.0696,2.99,12.49,47.84626,-54.09684
2024-05-06 22:19:00+00:00,361.0979,3.0,12.41,47.84626,-54.09684
2024-05-06 22:29:00+00:00,361.6597,3.0,12.41,47.84626,-54.09684
2024-05-06 22:39:00+00:00,366.1797,3.0,12.41,47.84626,-54.09684
2024-05-06 22:49:00+00:00,366.9729,3.0,12.41,47.84626,-54.09684
2024-05-06 22:59:00+00:00,361.6229,3.0,12.41,47.84626,-54.09684
2024-05-06 23:09:00+00:00,360.9862,3.0,12.41,47.84626,-54.09684
2024-05-06 23:19:00+00:00,363.4947,3.06,12.41,47.84626,-54.09684
2024-05-06 23:29:00+00:00,355.4429,3.05,12.41,47.84626,-54.09684
2024-05-06 23:39:00+00:00,347.7247,3.02,12.41,47.84626,-54.09684
2024-05-06 23:49:00+00:00,346.8546,3.03,12.41,47.84626,-54.09684
2024-05-06 23:59:00+00:00,342.4646,3.02,12.41,47.84626,-54.09684
